Regional Weather Roundup
Issued by NWS

Home | Current Version | Previous Version | Text Only | Print | Product List | Glossary On
Versions: 1 2 3 4 5 6 7 8 9 10 11 12 13 14 15 16 17 18 19 20 21 22 23 24 25 26 27
000
ASUS45 KBOU 231306
RWRCO

WEATHER ROUNDUP FOR COLORADO
NATIONAL WEATHER SERVICE DENVER/BOULDER CO
700 AM MDT WED APR 23 2014

NOTE: "FAIR" INDICATES FEW OR NO CLOUDS BELOW 12000 FEET WITH NO
SIGNIFICANT WEATHER AND/OR OBSTRUCTIONS TO VISIBILITY.

COZ001>005-013-030-031-231400-
...NORTHWEST COLORADO...

CITY           SKY/WX    TMP DP  RH WIND       PRES   REMARKS
CRAIG          CLOUDY    37  35  92 CALM      29.85S
HAYDEN         CLOUDY    34  32  93 CALM      29.87R
MEEKER         MOCLDY    40  35  83 CALM      29.84R
MOUNT WERNER   CLOUDY    30  28  93 W15       29.89R VSB<1/4 WCI  19
STEAMBOAT SPGS CLOUDY    35  34  96 CALM      29.86R
WALDEN         CLOUDY    32  30  93 N10       29.82R WCI  24
$$

COZ006>008-011-231400-
...WEST CENTRAL VALLEYS...

CITY           SKY/WX    TMP DP  RH WIND       PRES   REMARKS
GRAND JUNCTION PTCLDY    51  24  34 W9        29.76R
MONTROSE       PTCLDY    52  23  32 CALM      29.79R
EAGLE          CLOUDY    46  36  66 CALM      29.82R
RIFLE          MOCLDY    48  28  46 NW8G23    29.81R
DELTA          NOT AVBL
NUCLA          NOT AVBL
$$

COZ017>023-064>068-231400-
...SOUTHWEST COLORADO...

CITY           SKY/WX    TMP DP  RH WIND       PRES   REMARKS
DURANGO        PTCLDY    47  25  42 S3        29.86S
CORTEZ         CLEAR     46  25  43 S8        29.83R
PAGOSA SPRINGS PTCLDY    47  23  39 SW3       29.90R
TELLURIDE      PTCLDY    41  27  56 CALM      29.91F
WOLF CREEK PAS MOCLDY    28  23  80 SW22G36   30.01S WCI  15
$$

COZ009-010-012-014-032>034-037-058>063-231400-
...CENTRAL COLORADO...

CITY           SKY/WX    TMP DP  RH WIND       PRES   REMARKS
ASPEN          MOCLDY    44  32  62 SE15      29.82R
BUENA VISTA    PTCLDY    44  26  48 CALM      29.80R
COPPER MTN     LGT SNOW  32  25  74 SW21G28   29.93S VSB 3/4 WCI  20
BERTHOUD PASS  FAIR      27  16  63 W33G51    29.91S WCI   9
COTTONWOOD PAS MOCLDY    45  19  36 W16G32    29.86S
GUNNISON       PTCLDY    46  25  42 W13G20    29.86S
KREMMLING      MOCLDY    43  30  61 NW8       29.80R
LEADVILLE      LGT SNOW  32  28  85 CALM      29.87R VSB 3/4
MONARCH PASS   PTCLDY    28  23  80 W40G56    30.02S WCI  11
SALIDA         PTCLDY    47  26  43 SW5       29.87R
SUNLIGHT       MOCLDY    32  28  86 CALM      29.91R
WILKERSON PASS PTCLDY    32  21  64 SW14G26   29.88R WCI  22
$$

COZ069>075-231400-
...SAN LUIS VALLEY/SANGRE DE CRISTO MOUNTAINS...

CITY           SKY/WX    TMP DP  RH WIND       PRES   REMARKS
ALAMOSA        PTCLDY    50  26  39 SW14      29.84R
LA VETA PASS   CLEAR     39  25  56 SW21G45   29.87S
SAGUACHE       PTCLDY    45  21  39 W3        29.83R
$$

COZ035-036-038>040-231400-
...NORTHERN COLORADO FRONT RANGE...

CITY           SKY/WX    TMP DP  RH WIND       PRES   REMARKS
DENVER INTL AP MOCLDY    57  27  31 S15       29.60R
DMNS CITY PARK   N/A     56  29  34 S6        29.60R
AURORA         MOCLDY    57  25  28 S16       29.62R
FRONT RANGE AP NOT AVBL
ERIE MUNI ARPT CLEAR     47  35  63 CALM      29.60R
BOULDER MUN AP CLEAR     59  27  29 SW8       29.59S
CENTENNIAL     MOCLDY    51  27  39 S8        29.64R
BROOMFIELD     MOCLDY    54  30  40 W8        29.62R
FORT COLLINS   PTCLDY    45  37  76 CALM      29.59R
LONGMONT       NOT AVBL
$$

COZ041-046-047-076>085-087-088-231400-
...PIKES PEAK/PALMER DIVIDE AND SOUTHERN FOOTHILLS...

CITY           SKY/WX    TMP DP  RH WIND       PRES   REMARKS
COLO. SPRINGS  PTCLDY    56  28  34 S20       29.70R
A. F. ACADEMY  PTCLDY    54  25  32 VRB7      29.70R HAZE
ELLICOTT       NOT AVBL
FALCON         PTCLDY    53  25  33 S15G21    29.73R
FORT CARSON    PTCLDY    56  28  35 S14       29.68R
LIMON          CLOUDY    50  37  61 S13       29.67R
MONUMENT HILL  PTCLDY    48  23  37 SW10      29.71R
TRINIDAD       PTCLDY    55  39  54 S10       29.76R
$$

COZ042>045-048>051-090-091-231400-
...NORTHEAST COLORADO...

CITY           SKY/WX    TMP DP  RH WIND       PRES   REMARKS
GREELEY ARPT   MOCLDY    45  34  65 NW8       29.58R
AKRON          CLOUDY    59  35  40 SW21      29.56S
BURLINGTON     CLOUDY    61  41  47 S23G30    29.64S
WRAY           CLOUDY    63  42  46 SW20G26   29.53F
STERLING       NOT AVBL
HOLYOKE        NOT AVBL
FORT MORGAN    NOT AVBL
$$

COZ086-089-092>099-231400-
...SOUTHEAST COLORADO...

CITY           SKY/WX    TMP DP  RH WIND       PRES   REMARKS
PUEBLO         PTCLDY    60  33  36 S7        29.65R
LA JUNTA       CLOUDY    64  42  44 SW18      29.65S
LAMAR          CLOUDY    63  43  48 SW18      29.63F
SPRINGFIELD      N/A     58  41  53 SW13G22   29.74S
$$



USA.gov is the U.S. government's official web portal to all federal, state and local government web resources and services.